Location: Ch�risy
(50.2331°N, 2.9131°E)
Time: 22:18:55
(UTC+00:00)

CZ-2C R/B - Pass Details

Date: 17 January 2021
Orbit: 704 x 908 km, 98.1° (Epoch: 01 March)

Event Time Altitude Azimuth Distance (km) Brightness Sun altitude
Rises 17:43:01 0° 155° (SSE) 3,250 6.2 -13.3°
Reaches altitude 10° 17:45:17 10° 153° (SSE) 2,356 5.4 -13.6°
Maximum altitude 17:50:28 68° 72° (ENE) 889 3.1 -14.4°
Drops below altitude 10° 17:55:59 10° 350° (N) 2,505 5.6 -15.3°
Sets 17:58:27 0° 348° (NNW) 3,473 6.4 -15.7°
